Weather History for Manteo, NC

Change the Weather History Date:

Friday, May 24, 2013

  Actual Average Record
Temperature  
Mean Temperature 68 °F -  
Max Temperature 79 °F 73 °F 92 °F (2011)
Min Temperature 58 °F 60 °F 42 °F (2001)
Cooling Degree Days 4    
Growing Degree Days 18 (Base 50)    
Moisture  
Dew Point 60 °F    
Average Humidity 78    
Maximum Humidity 93    
Minimum Humidity 53    
Precipitation  
Precipitation 0.01 in - - ()
Sea Level Pressure  
Sea Level Pressure 29.90 in    
Wind  
Wind Speed 9 mph (NW)    
Max Wind Speed 21 mph    
Max Gust Speed 33 mph    
Visibility 10 miles    
Events Rain    
Averages and records for this station are not official NWS values.
T = Trace of Precipitation, MM = Missing Value Source: NWS Daily Summary

Daily Weather History Graph

Daily Weather History Graph

Search for Another Location

Airport:

Trip Planner

Search our weather history database for the weather conditions in past years. The results will help you decide how hot, cold, wet, or windy it might be!

Date:

Astronomy

May. 24, 2013 Rise Set
Actual Time 5:51 AM EDT 8:08 PM EDT
Civil Twilight 5:21 AM EDT 8:37 PM EDT
Nautical Twilight 4:46 AM EDT 9:13 PM EDT
Astronomical Twilight 4:07 AM EDT 9:52 PM EDT
Moon 7:49 PM EDT (5/24) 5:19 AM EDT (5/24)
Length of Visible Light 15h 15m
Length of Day
14h 17m
Full, 100% of the Moon is Illuminated
May 24
Full
May 25
Full
May 31
Last Quarter
Jun 8
New
Jun 16
First Quarter

Hourly Weather History & Observations

Time (EDT) Temp. Dew Point Humidity Pressure Visibility Wind Dir Wind Speed Gust Speed Precip Events Conditions
12:15 AM 72.5 °F 68.5 °F 87% 29.86 in 10.0 mi SW 6.9 mph - N/A   Overcast
12:35 AM 72.5 °F 68.2 °F 86% 29.85 in 10.0 mi SW 4.6 mph - N/A   Overcast
12:55 AM 72.7 °F 68.2 °F 86% 29.85 in 10.0 mi SSW 6.9 mph - N/A   Overcast
1:15 AM 72.5 °F 67.5 °F 84% 29.85 in 10.0 mi SSW 8.1 mph - N/A   Overcast
1:35 AM 72.9 °F 67.3 °F 83% 29.84 in 10.0 mi SSW 9.2 mph - N/A   Overcast
1:55 AM 73.2 °F 67.5 °F 82% 29.84 in 10.0 mi SSW 12.7 mph - N/A   Overcast
2:15 AM 72.9 °F 67.8 °F 84% 29.83 in 10.0 mi SSW 11.5 mph - N/A   Overcast
2:35 AM 72.7 °F 67.8 °F 85% 29.83 in 10.0 mi SW 9.2 mph - N/A   Overcast
2:55 AM 72.3 °F 68.0 °F 86% 29.82 in 10.0 mi SSW 8.1 mph - N/A   Overcast
3:15 AM 72.0 °F 68.0 °F 87% 29.80 in 10.0 mi SW 6.9 mph - N/A   Overcast
3:35 AM 71.6 °F 68.2 °F 89% 29.80 in 10.0 mi SW 6.9 mph - N/A   Scattered Clouds
3:55 AM 71.6 °F 68.2 °F 89% 29.80 in 10.0 mi SSW 8.1 mph - N/A   Scattered Clouds
4:15 AM 71.6 °F 68.4 °F 89% 29.79 in 10.0 mi SW 6.9 mph - N/A   Overcast
4:35 AM 71.6 °F 68.5 °F 90% 29.78 in 10.0 mi SSW 6.9 mph - N/A   Scattered Clouds
4:55 AM 71.2 °F 68.5 °F 91% 29.78 in 10.0 mi South 5.8 mph - N/A   Scattered Clouds
5:15 AM 71.6 °F 68.9 °F 91% 29.79 in 10.0 mi SSW 8.1 mph - N/A   Scattered Clouds
5:35 AM 71.8 °F 68.9 °F 91% 29.79 in 10.0 mi SW 6.9 mph - N/A   Mostly Cloudy
5:55 AM 71.8 °F 68.9 °F 91% 29.80 in 10.0 mi SW 8.1 mph - N/A   Mostly Cloudy
6:15 AM 71.6 °F 69.1 °F 92% 29.80 in 10.0 mi WSW 8.1 mph - N/A   Overcast
6:35 AM 71.1 °F 68.9 °F 93% 29.80 in 10.0 mi WSW 4.6 mph - N/A   Scattered Clouds
6:55 AM 71.6 °F 68.9 °F 91% 29.80 in 10.0 mi WSW 5.8 mph - N/A   Scattered Clouds
7:15 AM 70.9 °F 68.4 °F 92% 29.80 in 10.0 mi West 4.6 mph - N/A   Mostly Cloudy
7:35 AM 70.7 °F 68.2 °F 92% 29.81 in 10.0 mi West 5.8 mph - N/A   Mostly Cloudy
7:55 AM 70.9 °F 68.0 °F 91% 29.81 in 10.0 mi West 6.9 mph - N/A   Scattered Clouds
8:15 AM 72.0 °F 68.2 °F 88% 29.82 in 10.0 mi WNW 8.1 mph - N/A   Mostly Cloudy
8:35 AM 72.3 °F 67.5 °F 85% 29.81 in 10.0 mi WNW 6.9 mph - N/A   Overcast
8:55 AM 72.1 °F 67.5 °F 85% 29.82 in 10.0 mi West 6.9 mph - N/A   Overcast
9:15 AM 72.0 °F 66.9 °F 84% 29.82 in 10.0 mi West 4.6 mph - N/A   Overcast
9:35 AM 73.4 °F 67.5 °F 82% 29.82 in 10.0 mi WNW 6.9 mph - N/A   Overcast
9:55 AM 72.1 °F 66.7 °F 83% 29.82 in 10.0 mi WNW 4.6 mph - N/A   Overcast
10:15 AM 73.2 °F 65.8 °F 78% 29.82 in 10.0 mi NNW 5.8 mph - N/A   Overcast
10:35 AM 73.6 °F 65.5 °F 76% 29.82 in 10.0 mi NW 4.6 mph - N/A   Overcast
10:55 AM 75.9 °F 66.4 °F 72% 29.83 in 10.0 mi NW 8.1 mph - N/A   Mostly Cloudy
11:15 AM 75.4 °F 65.7 °F 72% 29.83 in 10.0 mi NNW 6.9 mph - N/A   Mostly Cloudy
11:35 AM 76.6 °F 66.2 °F 70% 29.83 in 10.0 mi NW 8.1 mph - N/A   Mostly Cloudy
11:55 AM 75.9 °F 66.4 °F 72% 29.83 in 10.0 mi WNW 8.1 mph - N/A   Mostly Cloudy
12:15 PM 77.9 °F 66.4 °F 68% 29.84 in 10.0 mi NW 8.1 mph - N/A   Scattered Clouds
12:35 PM 77.4 °F 65.8 °F 67% 29.84 in 10.0 mi WNW 6.9 mph - N/A   Scattered Clouds
12:55 PM 79.0 °F 66.2 °F 65% 29.84 in 10.0 mi WNW 9.2 mph - N/A   Scattered Clouds
1:15 PM 79.0 °F 66.6 °F 66% 29.84 in 10.0 mi NW 9.2 mph 17.3 mph N/A   Scattered Clouds
1:35 PM 71.4 °F 62.2 °F 73% 29.86 in 10.0 mi NNE 18.4 mph 24.2 mph N/A   Mostly Cloudy
1:55 PM 69.6 °F 62.1 °F 77% 29.86 in 10.0 mi NNE 16.1 mph 25.3 mph N/A   Overcast
2:15 PM 64.4 °F 58.3 °F 80% 29.88 in 10.0 mi North 20.7 mph 33.4 mph N/A   Overcast
2:35 PM 61.9 °F 59.4 °F 91% 29.89 in 7.0 mi North 20.7 mph 31.1 mph N/A Rain Light Rain
2:55 PM 61.7 °F 59.0 °F 91% 29.90 in 7.0 mi North 18.4 mph 28.8 mph N/A Rain Light Rain
3:15 PM 61.2 °F 57.7 °F 88% 29.92 in 10.0 mi NNW 13.8 mph 25.3 mph 0.01 in Rain Light Rain
3:35 PM 60.4 °F 56.7 °F 87% 29.93 in 10.0 mi North 17.3 mph 27.6 mph 0.01 in   Overcast
3:55 PM 60.4 °F 54.3 °F 80% 29.94 in 10.0 mi NNW 13.8 mph 23.0 mph 0.01 in   Overcast
4:15 PM 60.4 °F 54.7 °F 81% 29.95 in 10.0 mi NNW 15.0 mph 23.0 mph N/A   Overcast
4:35 PM 59.9 °F 52.2 °F 76% 29.96 in 10.0 mi NNW 15.0 mph 24.2 mph N/A   Overcast
4:55 PM 61.2 °F 53.6 °F 76% 29.96 in 10.0 mi North 11.5 mph 19.6 mph N/A   Overcast
5:15 PM 61.3 °F 53.8 °F 76% 29.97 in 10.0 mi North 15.0 mph 27.6 mph N/A   Overcast
5:35 PM 60.8 °F 53.2 °F 76% 29.97 in 10.0 mi North 13.8 mph 24.2 mph N/A   Overcast
5:55 PM 60.8 °F 53.1 °F 76% 29.97 in 10.0 mi NNE 15.0 mph 21.9 mph N/A   Overcast
6:15 PM 60.3 °F 53.2 °F 78% 29.98 in 10.0 mi North 13.8 mph 19.6 mph N/A   Overcast
6:35 PM 60.3 °F 53.6 °F 79% 29.99 in 10.0 mi North 11.5 mph 18.4 mph N/A   Mostly Cloudy
6:55 PM 60.8 °F 52.7 °F 75% 30.00 in 10.0 mi North 12.7 mph 19.6 mph N/A   Mostly Cloudy
7:15 PM 60.3 °F 51.8 °F 74% 30.01 in 10.0 mi North 15.0 mph 20.7 mph N/A   Mostly Cloudy
7:35 PM 60.3 °F 51.6 °F 73% 30.02 in 10.0 mi North 13.8 mph 19.6 mph N/A   Mostly Cloudy
7:55 PM 60.1 °F 50.0 °F 69% 30.03 in 10.0 mi NNE 18.4 mph 26.5 mph N/A   Scattered Clouds
8:15 PM 60.1 °F 49.6 °F 68% 30.04 in 10.0 mi North 15.0 mph 27.6 mph N/A   Mostly Cloudy
8:35 PM 59.5 °F 48.9 °F 68% 30.05 in 10.0 mi North 17.3 mph 27.6 mph N/A   Overcast
8:55 PM 59.2 °F 48.2 °F 67% 30.06 in 10.0 mi North 17.3 mph 26.5 mph N/A   Mostly Cloudy
9:15 PM 59.2 °F 47.8 °F 66% 30.06 in 10.0 mi North 18.4 mph 28.8 mph N/A   Overcast
9:35 PM 59.5 °F 46.8 °F 63% 30.08 in 10.0 mi North 18.4 mph 25.3 mph N/A   Mostly Cloudy
9:55 PM 59.4 °F 45.3 °F 60% 30.09 in 10.0 mi North 11.5 mph 24.2 mph N/A   Scattered Clouds
10:15 PM 59.0 °F 45.9 °F 62% 30.10 in 10.0 mi North 12.7 mph 23.0 mph N/A   Clear
10:35 PM 58.6 °F 44.4 °F 59% 30.11 in 10.0 mi NNW 12.7 mph 18.4 mph N/A   Clear
10:55 PM 58.5 °F 43.3 °F 57% 30.11 in 10.0 mi NNW 12.7 mph 25.3 mph N/A   Clear
11:15 PM 58.3 °F 43.2 °F 57% 30.11 in 10.0 mi NNW 10.4 mph 19.6 mph N/A   Clear
11:35 PM 58.3 °F 41.7 °F 54% 30.11 in 10.0 mi NNW 10.4 mph 24.2 mph N/A   Clear
11:55 PM 58.1 °F 41.2 °F 53% 30.11 in 10.0 mi North 15.0 mph 21.9 mph N/A   Clear